Location: Unspecified
(52.1384°N, 8.6525°W)
Time: 10:54:01
(UTC+00:00)

XW-2F - Pass Details

Date: 21 January 2021
Orbit: 500 x 519 km, 97.5° (Epoch: 24 February)

Event Time Altitude Azimuth Distance (km) Brightness Sun altitude
Rises 06:20:39 0° 19° (NNE) 2,659 ? -19.4°
Reaches altitude 10° 06:22:53 10° 28° (NNE) 1,767 ? -19.0°
Maximum altitude 06:26:27 37° 97° (E) 826 ? -18.5°
Drops below altitude 10° 06:29:59 10° 166° (SSE) 1,754 ? -17.9°
Sets 06:32:11 0° 175° (S) 2,636 ? -17.6°
